Location: Alderney
(49.7170°N, 2.2000°W)
Time: 00:16:40
(UTC+00:00)

N. Korean satellite - Visible Passes

Search period start: 24 February 2018 00:00
Search period end: 06 March 2018 00:00
Orbit: 459 x 514 km, 97.2° (Epoch: 23 February)

Date Brightness Start Highest point End Pass type
(mag) Time Alt. Az. Time Alt. Az. Time Alt. Az.
24 Feb 10.4 05:43:00 10° ENE 05:44:37 12° E 05:46:14 10° ESE visible
25 Feb 10.1 19:06:51 10° WSW 19:08:40 14° W 19:10:29 10° WNW visible
26 Feb 9.3 18:41:48 10° SSW 18:44:42 24° W 18:47:37 10° NW visible
27 Feb 9.8 06:04:10 10° NE 06:07:03 21° E 06:09:57 10° SE visible
27 Feb 7.9 18:17:26 10° S 18:20:48 44° W 18:24:14 10° NNW visible
28 Feb 10.5 05:41:32 10° ENE 05:43:05 12° E 05:44:38 10° ESE visible
01 Mar 10.1 19:05:08 10° WSW 19:07:05 14° W 19:09:04 10° NW visible
02 Mar 9.3 18:40:09 10° SSW 18:43:07 25° W 18:46:07 10° NW visible
03 Mar 9.9 06:02:38 10° NE 06:05:30 21° E 06:08:22 10° SE visible
04 Mar 10.5 05:40:02 10° ENE 05:41:31 12° E 05:42:59 10° ESE visible
05 Mar 10.0 19:03:23 10° SW 19:05:28 15° W 19:07:35 10° NW visible
